Time,TemperatureF,DewpointF,PressureIn,WindDirection,WindDirectionDegrees,WindSpeedMPH,WindSpeedGustMPH,Humidity,HourlyPrecipIn,Conditions,Clouds,dailyrainin,SoftwareType,DateUTC
2013-01-25 16:23:00,158.0,0.0,30.15,SSE,158,10.0,11.0,0,0.00,,---,0.00,VWS V14.00,2013-01-25 22:23:00,
2013-01-25 16:25:00,158.0,0.0,30.15,SSE,161,11.0,12.0,0,0.00,,---,0.00,VWS V14.00,2013-01-25 22:25:00,
2013-01-25 16:35:00,158.0,0.0,30.14,SSE,160,11.0,13.0,0,0.00,,---,0.00,VWS V14.00,2013-01-25 22:35:00,
2013-01-25 16:45:00,158.0,0.0,30.14,SSE,162,9.0,11.0,0,0.00,,---,0.00,VWS V14.00,2013-01-25 22:45:00,
2013-01-25 16:55:00,158.0,0.0,30.14,SSE,158,10.0,11.0,0,0.00,,---,0.00,VWS V14.00,2013-01-25 22:55:00,
2013-01-25 17:05:00,158.0,0.0,30.14,SSE,163,9.0,11.0,0,0.00,,---,0.00,VWS V14.00,2013-01-25 23:05:00,
2013-01-25 17:15:00,158.0,0.0,30.14,SSE,163,9.0,11.0,0,0.00,,---,0.00,VWS V14.00,2013-01-25 23:15:00,
2013-01-25 17:25:00,158.0,0.0,30.14,SSE,163,9.0,11.0,0,0.00,,---,0.00,VWS V14.00,2013-01-25 23:25:00,
2013-01-25 17:35:00,158.0,0.0,30.14,SSE,161,10.0,11.0,0,0.00,,---,0.00,VWS V14.00,2013-01-25 23:35:00,
2013-01-25 17:45:00,158.0,0.0,30.13,SSE,163,9.0,11.0,0,0.00,,---,0.00,VWS V14.00,2013-01-25 23:45:00,
2013-01-25 17:55:00,158.0,0.0,30.14,SSE,165,9.0,10.0,0,0.00,,---,0.00,VWS V14.00,2013-01-25 23:55:00,
2013-01-25 18:05:00,158.0,0.0,30.13,South,169,7.0,10.0,0,0.00,,---,0.00,VWS V14.00,2013-01-26 00:05:00,
2013-01-25 18:15:00,158.0,0.0,30.13,SSE,167,9.0,10.0,0,0.00,,---,0.00,VWS V14.00,2013-01-26 00:15:00,
2013-01-25 18:25:00,158.0,0.0,30.13,SSE,167,9.0,10.0,0,0.00,,---,0.00,VWS V14.00,2013-01-26 00:25:00,
2013-01-25 18:35:00,158.0,0.0,30.13,SSE,167,7.0,10.0,0,0.00,,---,0.00,VWS V14.00,2013-01-26 00:35:00,
2013-01-25 18:45:00,158.0,0.0,30.13,SSE,164,9.0,10.0,0,0.00,,---,0.00,VWS V14.00,2013-01-26 00:45:00,
2013-01-25 18:55:00,158.0,0.0,30.13,SSE,164,7.0,10.0,0,0.00,,---,0.00,VWS V14.00,2013-01-26 00:55:00,
2013-01-25 19:05:00,158.0,0.0,30.13,SSE,167,7.0,9.0,0,0.00,,---,0.00,VWS V14.00,2013-01-26 01:05:00,
2013-01-25 19:15:00,158.0,0.0,30.12,SSE,166,7.0,10.0,0,0.00,,---,0.00,VWS V14.00,2013-01-26 01:15:00,
2013-01-25 19:25:00,158.0,0.0,30.13,SSE,164,6.0,9.0,0,0.00,,---,0.00,VWS V14.00,2013-01-26 01:25:00,
2013-01-25 19:35:00,158.0,0.0,30.13,SSE,163,9.0,11.0,0,0.00,,---,0.00,VWS V14.00,2013-01-26 01:35:00,
2013-01-25 19:45:00,158.0,0.0,30.13,SSE,163,9.0,11.0,0,0.00,,---,0.00,VWS V14.00,2013-01-26 01:45:00,
2013-01-25 19:55:00,158.0,0.0,30.14,SSE,162,7.0,10.0,0,0.00,,---,0.00,VWS V14.00,2013-01-26 01:55:00,
2013-01-25 20:05:00,158.0,0.0,30.14,SSE,159,9.0,10.0,0,0.00,,---,0.00,VWS V14.00,2013-01-26 02:05:00,
2013-01-25 20:15:00,158.0,0.0,30.14,SSE,161,9.0,11.0,0,0.00,,---,0.00,VWS V14.00,2013-01-26 02:15:00,
2013-01-25 20:25:00,158.0,0.0,30.14,SSE,165,9.0,10.0,0,0.00,,---,0.00,VWS V14.00,2013-01-26 02:25:00,
2013-01-25 20:35:00,158.0,0.0,30.14,SSE,168,6.0,10.0,0,0.00,,---,0.00,VWS V14.00,2013-01-26 02:35:00,
2013-01-25 20:45:00,158.0,0.0,30.14,South,169,5.0,7.0,0,0.00,,---,0.00,VWS V14.00,2013-01-26 02:45:00,
2013-01-25 20:55:00,158.0,0.0,30.14,South,169,5.0,6.0,0,0.00,,---,0.00,VWS V14.00,2013-01-26 02:55:00,
2013-01-25 21:05:00,158.0,0.0,30.15,South,169,6.0,6.0,0,0.00,,---,0.00,VWS V14.00,2013-01-26 03:05:00,
2013-01-25 21:15:00,158.0,0.0,30.15,South,169,3.0,6.0,0,0.00,,---,0.00,VWS V14.00,2013-01-26 03:15:00,
2013-01-25 21:25:00,158.0,0.0,30.16,South,169,4.0,5.0,0,0.00,,---,0.00,VWS V14.00,2013-01-26 03:25:00,
2013-01-25 21:35:00,158.0,0.0,30.16,South,169,4.0,5.0,0,0.00,,---,0.00,VWS V14.00,2013-01-26 03:35:00,
2013-01-25 21:45:00,158.0,0.0,30.16,South,169,3.0,4.0,0,0.00,,---,0.00,VWS V14.00,2013-01-26 03:45:00,
2013-01-25 21:55:00,158.0,0.0,30.17,South,169,3.0,4.0,0,0.00,,---,0.00,VWS V14.00,2013-01-26 03:55:00,
2013-01-25 22:05:00,158.0,0.0,30.17,South,169,3.0,3.0,0,0.00,,---,0.00,VWS V14.00,2013-01-26 04:05:00,
2013-01-25 22:15:00,158.0,0.0,30.17,South,169,4.0,4.0,0,0.00,,---,0.00,VWS V14.00,2013-01-26 04:15:00,
2013-01-25 22:25:00,158.0,0.0,30.17,South,169,4.0,5.0,0,0.00,,---,0.00,VWS V14.00,2013-01-26 04:25:00,
2013-01-25 22:36:00,158.0,0.0,30.17,SSE,167,4.0,6.0,0,0.00,,---,0.00,VWS V14.00,2013-01-26 04:36:00,
2013-01-25 22:45:00,158.0,0.0,30.17,SSE,166,5.0,5.0,0,0.00,,---,0.00,VWS V14.00,2013-01-26 04:45:00,
2013-01-25 22:55:00,158.0,0.0,30.16,SSE,161,5.0,6.0,0,0.00,,---,0.00,VWS V14.00,2013-01-26 04:55:00,
2013-01-25 23:05:00,158.0,0.0,30.17,SSE,161,5.0,5.0,0,0.00,,---,0.00,VWS V14.00,2013-01-26 05:05:00,
2013-01-25 23:16:00,158.0,0.0,30.16,SSE,161,5.0,6.0,0,0.00,,---,0.00,VWS V14.00,2013-01-26 05:16:00,
2013-01-25 23:26:00,158.0,0.0,30.16,SSE,161,5.0,6.0,0,0.00,,---,0.00,VWS V14.00,2013-01-26 05:26:00,
2013-01-25 23:36:00,158.0,0.0,30.16,SSE,161,6.0,6.0,0,0.00,,---,0.00,VWS V14.00,2013-01-26 05:36:00,
2013-01-25 23:45:00,158.0,0.0,30.16,SSE,161,7.0,9.0,0,0.00,,---,0.00,VWS V14.00,2013-01-26 05:45:00,
2013-01-25 23:56:00,158.0,0.0,30.16,SSE,158,7.0,9.0,0,0.00,,---,0.00,VWS V14.00,2013-01-26 05:56:00,